Rakoskert, Hungary

1:40 PM CET on January 24, 2017 (GMT +0100)
Ferihegy

Weather History for LHBP - March, 2012

Change the Weather History Date:

Sunday, March 25, 2012

  Actual Average Record
Temperature  
Mean Temperature 52 °F -  
Max Temperature 69 °F 57 °F 69 °F (2012)
Min Temperature 35 °F 38 °F 21 °F (2016)
Degree Days  
Heating Degree Days 13    
Growing Degree Days 2 (Base 50)    
Moisture  
Dew Point 32 °F    
Average Humidity 47    
Maximum Humidity 87    
Minimum Humidity 20    
Precipitation  
Precipitation 0.00 in - - ()
Sea Level Pressure  
Sea Level Pressure 30.17 in    
Wind  
Wind Speed 7 mph ()    
Max Wind Speed 18 mph    
Max Gust Speed -    
Averages and records for this station are not official NWS values.
T = Trace of Precipitation, MM = Missing Value Source: Averaged Metar Reports

Daily Weather History Graph

Daily Weather History Graph

Search for Another Location

Airport or City:

Trip Planner

Search our weather history database for the weather conditions in past years. The results will help you decide how hot, cold, wet, or windy it might be!

Date:

Astronomy

Mar. 25, 2012 Rise Set
Actual Time 6:35 AM CEST 7:03 PM CEST
Civil Twilight 6:04 AM CEST 7:33 PM CEST
Nautical Twilight 5:28 AM CEST 8:10 PM CEST
Astronomical Twilight 4:50 AM CEST 8:48 PM CEST
Moon 7:23 AM CEST (3/25) 10:18 PM CEST (3/25)
Length of Visible Light 13h 29m
Length of Day
12h 27m
Waxing Crescent, 7% of the Moon is Illuminated
Mar 25
Waxing Crescent
Mar 30
First Quarter
Apr 6
Full
Apr 13
Last Quarter
Apr 21
New

Hourly Weather History & Observations

Time (CEST) Temp. Windchill Dew Point Humidity Pressure Visibility Wind Dir Wind Speed Gust Speed Precip Events Conditions
12:00 AM 39.2 °F - 32.0 °F 75% 30.18 in - Variable 2.3 mph - N/A   Clear
12:30 AM 41.0 °F 39.0 °F 33.8 °F 76% 30.18 in - Variable 3.5 mph - N/A   Clear
1:00 AM 39.2 °F - 32.0 °F 75% 30.18 in - Variable 2.3 mph - N/A   Clear
1:30 AM 41.0 °F - 32.0 °F 70% 30.18 in - Variable 2.3 mph - N/A   Clear
3:00 AM 41.0 °F - 33.8 °F 76% 30.18 in - Variable 1.2 mph - N/A   Clear
3:30 AM 39.2 °F - 32.0 °F 75% 30.18 in - Variable 1.2 mph - N/A   Clear
4:00 AM 41.0 °F 35.8 °F 33.8 °F 76% 30.18 in - NW 8.1 mph - N/A   Clear
4:30 AM 41.0 °F 39.0 °F 33.8 °F 76% 30.18 in - Variable 3.5 mph - N/A   Clear
5:00 AM 39.2 °F - 33.8 °F 81% 30.18 in - Variable 2.3 mph - N/A   Clear
5:30 AM 39.2 °F 35.0 °F 33.8 °F 81% 30.18 in - WNW 5.8 mph - N/A   Clear
6:00 AM 37.4 °F 33.8 °F 32.0 °F 81% 30.18 in - North 4.6 mph - N/A   Clear
6:30 AM 35.6 °F 30.7 °F 30.2 °F 81% 30.21 in - North 5.8 mph - N/A   Clear
7:00 AM 35.6 °F 32.8 °F 30.2 °F 81% 30.21 in - Variable 3.5 mph - N/A   Clear
7:30 AM 37.4 °F 33.8 °F 33.8 °F 87% 30.21 in - NW 4.6 mph - N/A   Clear
8:00 AM 46.4 °F 44.3 °F 39.2 °F 76% 30.21 in - NW 4.6 mph - N/A   Clear
8:30 AM 48.2 °F - 39.2 °F 71% 30.21 in - NW 5.8 mph - N/A   Clear
9:00 AM 53.6 °F - 39.2 °F 58% 30.21 in - NW 4.6 mph - N/A   Clear
9:30 AM 57.2 °F - 41.0 °F 55% 30.21 in - NW 4.6 mph - N/A   Clear
10:00 AM 59.0 °F - 39.2 °F 48% 30.21 in - Variable 3.5 mph - N/A   Clear
10:30 AM 59.0 °F - 39.2 °F 48% 30.21 in - West 4.6 mph - N/A   Clear
11:00 AM 62.6 °F - 39.2 °F 42% 30.21 in - NW 5.8 mph - N/A   Clear
11:30 AM 62.6 °F - 37.4 °F 39% 30.21 in - NW 8.1 mph - N/A   Clear
12:00 PM 62.6 °F - 37.4 °F 39% 30.21 in - NW 8.1 mph - N/A   Clear
12:30 PM 64.4 °F - 33.8 °F 32% 30.18 in - NW 11.5 mph - N/A   Clear
1:00 PM 66.2 °F - 33.8 °F 30% 30.18 in - NW 11.5 mph - N/A   Clear
1:30 PM 68.0 °F - 33.8 °F 28% 30.18 in - NW 15.0 mph - N/A   Clear
2:00 PM 68.0 °F - 33.8 °F 28% 30.15 in - NW 16.1 mph - N/A   Clear
2:30 PM 69.8 °F - 33.8 °F 27% 30.15 in - West 13.8 mph - N/A   Clear
3:00 PM 68.0 °F - 33.8 °F 28% 30.15 in - WNW 17.3 mph - N/A   Clear
3:30 PM 69.8 °F - 35.6 °F 28% 30.12 in - WNW 17.3 mph - N/A   Clear
4:00 PM 69.8 °F - 32.0 °F 25% 30.12 in - NW 16.1 mph - N/A   Clear
4:30 PM 68.0 °F - 33.8 °F 28% 30.12 in - NW 16.1 mph - N/A   Clear
5:00 PM 68.0 °F - 32.0 °F 26% 30.12 in - NW 17.3 mph - N/A   Clear
5:30 PM 68.0 °F - 33.8 °F 28% 30.12 in - WNW 18.4 mph - N/A   Clear
6:00 PM 68.0 °F - 33.8 °F 28% 30.12 in - WNW 15.0 mph - N/A   Clear
6:30 PM 66.2 °F - 32.0 °F 28% 30.12 in - NW 17.3 mph - N/A   Clear
7:00 PM 62.6 °F - 33.8 °F 34% 30.12 in - WNW 12.7 mph - N/A   Clear
7:30 PM 60.8 °F - 32.0 °F 34% 30.12 in - NW 12.7 mph - N/A   Clear
8:00 PM 60.8 °F - 32.0 °F 34% 30.12 in - WNW 12.7 mph - N/A   Clear
8:30 PM 60.8 °F - 32.0 °F 34% 30.15 in - NW 12.7 mph - N/A   Clear
9:00 PM 62.6 °F - 23.0 °F 22% 30.15 in - NNW 16.1 mph - N/A   Clear
9:30 PM 60.8 °F - 19.4 °F 20% 30.15 in - NNW 13.8 mph - N/A   Clear
10:00 PM 59.0 °F - 21.2 °F 23% 30.15 in - NNW 15.0 mph - N/A   Clear
10:30 PM 57.2 °F - 21.2 °F 25% 30.15 in - NW 13.8 mph - N/A   Clear
11:00 PM 55.4 °F - 21.2 °F 26% 30.18 in - NW 16.1 mph - N/A   Clear
11:30 PM 55.4 °F - 23.0 °F 29% 30.18 in - NW 16.1 mph - N/A   Clear
12:00 AM 57.2 °F - 23.0 °F 27% 30.18 in - WNW 18.4 mph - N/A   Clear
12:30 AM 55.4 °F - 24.8 °F 31% 30.18 in - NW 16.1 mph - N/A   Clear